This demonstration page uses our WeatherBlox Daily Observations layout. Learn more.

Left ArrowRight Arrow

Hourly Observations for October 26, 2021

Temp ( °F °C ) Dew Point ( °F °C ) Humidity (%) Winds ( mph kmh ) Pressure ( in mb ) Visibility ( mi km ) Precip ( " mm )
1:15 am 01:15 Cloudy 59 15 59 15 100 100 NNW 5 7 29.63 1003 10 16 0.00 0.00
1:35 am 01:35 Partly Cloudy 59 15 59 15 100 100 Calm 29.63 1003 10 16 0.00 0.00
2:15 am 02:15 Partly Cloudy with Mist and Fog 59 15 59 15 100 100 Calm 29.61 1003 5 8 0.00 0.00
2:55 am 02:55 Clear 59 15 59 15 100 100 N 3 6 29.61 1003 10 16 0.00 0.00
3:35 am 03:35 Partly Cloudy 57 14 57 14 100 100 N 3 6 29.59 1002 10 16 0.00 0.00
3:55 am 03:55 Partly Cloudy 57 14 57 14 100 100 NNW 3 6 29.59 1002 10 16 0.00 0.00
4:35 am 04:35 Partly Cloudy 57 14 57 14 100 100 WNW 6 9 29.59 1002 10 16 0.00 0.00
7:35 am 07:35 Cloudy 59 15 54 12 82 82 WNW 17 28 29.60 1002 10 16 0.00 0.00
7:55 am 07:55 Cloudy 59 15 54 12 82 82 NW 12 19 29.61 1003 10 16 0.00 0.00
8:15 am 08:15 Cloudy 59 15 54 12 82 82 NW 16 26 29.60 1002 10 16 0.00 0.00
8:35 am 08:35 Cloudy 59 15 54 12 82 82 NW 13 20 29.60 1002 10 16 0.00 0.00
9:15 am 09:15 Cloudy 59 15 54 12 82 82 WNW 21 33 29.60 1002 10 16 0.00 0.00
9:35 am 09:35 Partly Cloudy 59 15 54 12 82 82 WNW 16 26 29.60 1002 10 16 0.00 0.00
9:55 am 09:55 Partly Cloudy 61 16 54 12 77 77 WNW 18 30 29.59 1002 10 16 0.00 0.00
10:15 am 10:15 Sunny 61 16 54 12 77 77 WNW 18 30 29.59 1002 10 16 0.00 0.00
10:35 am 10:35 Sunny 61 16 54 12 77 77 NW 12 19 29.59 1002 10 16 0.00 0.00
10:55 am 10:55 Sunny 63 17 54 12 73 73 NW 26 43 29.58 1002 10 16 0.00 0.00
11:15 am 11:15 Partly Cloudy 63 17 54 12 73 73 NW 22 35 29.58 1002 10 16 0.00 0.00
11:35 am 11:35 Mostly Cloudy 61 16 52 11 72 72 NW 29 46 29.59 1002 10 16 0.00 0.00
11:55 am 11:55 Cloudy 61 16 52 11 72 72 WNW 20 31 29.60 1002 10 16 0.00 0.00
12:15 pm 12:15 Cloudy 61 16 50 10 68 68 WNW 21 33 29.62 1003 10 16 0.00 0.00
12:35 pm 12:35 Cloudy 63 17 50 10 64 64 NW 22 35 29.62 1003 10 16 0.00 0.00
12:55 pm 12:55 Cloudy 59 15 48 9 68 68 W 22 35 29.63 1003 10 16 0.00 0.00
1:15 pm 13:15 Cloudy 59 15 48 9 68 68 NNW 23 37 29.62 1003 10 16 0.00 0.00
1:35 pm 13:35 Cloudy 61 16 48 9 63 63 WNW 25 41 29.61 1003 10 16 0.00 0.00
1:55 pm 13:55 Cloudy 59 15 46 8 63 63 WNW 22 35 29.61 1003 10 16 0.00 0.00
2:15 pm 14:15 Cloudy 61 16 46 8 59 59 NW 25 41 29.60 1002 10 16 0.00 0.00
2:55 pm 14:55 Cloudy 59 15 46 8 63 63 WNW 22 35 29.60 1002 10 16 0.00 0.00
3:15 pm 15:15 Cloudy 59 15 45 7 59 59 NW 29 46 29.61 1003 10 16 0.00 0.00
3:35 pm 15:35 Cloudy 57 14 45 7 63 63 NW 20 31 29.63 1003 10 16 0.00 0.00
3:55 pm 15:55 Cloudy 55 13 43 6 63 63 NW 31 50 29.62 1003 10 16 0.00 0.00
4:15 pm 16:15 Cloudy 55 13 43 6 63 63 NW 25 41 29.62 1003 10 16 0.00 0.00
4:35 pm 16:35 Cloudy 55 13 43 6 63 63 NW 21 33 29.64 1004 10 16 0.00 0.00
4:55 pm 16:55 Cloudy 54 12 43 6 67 67 NW 18 30 29.65 1004 10 16 0.00 0.00
5:15 pm 17:15 Cloudy 54 12 43 6 67 67 NW 17 28 29.66 1005 10 16 0.00 0.00
5:35 pm 17:35 Cloudy 54 12 43 6 67 67 NW 17 28 29.66 1005 10 16 0.00 0.00
5:55 pm 17:55 Cloudy 54 12 43 6 67 67 NW 12 19 29.67 1005 10 16 0.00 0.00
6:15 pm 18:15 Cloudy 54 12 43 6 67 67 NNW 20 31 29.68 1005 10 16 0.00 0.00
6:35 pm 18:35 Cloudy 54 12 43 6 67 67 NNW 17 28 29.68 1005 10 16 0.00 0.00
6:55 pm 18:55 Cloudy 54 12 43 6 67 67 NW 18 30 29.69 1006 10 16 0.00 0.00
7:15 pm 19:15 Cloudy 52 11 43 6 72 72 NW 21 33 29.69 1006 10 16 0.00 0.00
7:35 pm 19:35 Cloudy 52 11 43 6 72 72 NW 15 24 29.70 1006 10 16 0.00 0.00
7:55 pm 19:55 Cloudy 52 11 43 6 72 72 NW 20 31 29.69 1006 10 16 0.00 0.00
8:15 pm 20:15 Cloudy 52 11 43 6 72 72 NW 18 30 29.70 1006 10 16 0.00 0.00
8:35 pm 20:35 Cloudy 52 11 41 5 67 67 NW 13 20 29.70 1006 10 16 0.00 0.00
9:15 pm 21:15 Cloudy 52 11 41 5 67 67 NW 12 19 29.69 1006 10 16 0.00 0.00
9:35 pm 21:35 Cloudy 52 11 41 5 67 67 NW 16 26 29.69 1006 10 16 0.00 0.00
10:15 pm 22:15 Cloudy 52 11 41 5 67 67 NW 21 33 29.69 1006 10 16 0.00 0.00
10:35 pm 22:35 Cloudy 52 11 41 5 67 67 NW 18 30 29.70 1006 10 16 0.00 0.00
10:55 pm 22:55 Cloudy 52 11 43 6 72 72 NW 24 39 29.70 1006 10 16 0.00 0.00
11:15 pm 23:15 Cloudy 52 11 41 5 67 67 NW 22 35 29.69 1006 10 16 0.00 0.00
11:35 pm 23:35 Cloudy 52 11 43 6 72 72 NW 25 41 29.68 1005 10 16 0.00 0.00
11:55 pm 23:55 Cloudy 52 11 43 6 72 72 NW 15 24 29.69 1006 10 16 0.00 0.00

Powered by AerisWeather